La Grande, OR

1:01 AM PDT on March 28, 2017 (GMT -0700)
La Grande-Union County

Weather History for KLGD - December, 2013

Change the Weather History Date:

Friday, December 27, 2013

  Actual Average Record
Temperature  
Mean Temperature 34 °F -  
Max Temperature 39 °F 35 °F 57 °F (1980)
Min Temperature 30 °F 24 °F -2 °F (1990)
Degree Days  
Heating Degree Days 30    
Moisture  
Dew Point 17 °F    
Average Humidity 46    
Maximum Humidity 55    
Minimum Humidity 41    
Precipitation  
Precipitation 0.00 in - - ()
Sea Level Pressure  
Sea Level Pressure 30.23 in    
Wind  
Wind Speed 22 mph (South)    
Max Wind Speed 33 mph    
Max Gust Speed 43 mph    
Visibility 10 miles    
Events      
Averages and records for this station are not official NWS values.
T = Trace of Precipitation, MM = Missing Value Source: NWS Daily Summary

Daily Weather History Graph

Daily Weather History Graph

Search for Another Location

Airport or City:

Trip Planner

Search our weather history database for the weather conditions in past years. The results will help you decide how hot, cold, wet, or windy it might be!

Date:

Astronomy

Dec. 27, 2013 Rise Set
Actual Time 7:30 AM PST 4:16 PM PST
Civil Twilight 6:56 AM PST 4:50 PM PST
Nautical Twilight 6:19 AM PST 5:27 PM PST
Astronomical Twilight 5:43 AM PST 6:03 PM PST
Moon 1:58 AM PST (12/27) 12:37 PM PST (12/27)
Length of Visible Light 9h 53m
Length of Day
8h 45m
Waning Crescent, 27% of the Moon is Illuminated
Dec 27
Waning Crescent
Jan 1
New
Jan 7
First Quarter
Jan 15
Full
Jan 23
Last Quarter

Hourly Weather History & Observations

Time (PST) Temp. Windchill Dew Point Humidity Pressure Visibility Wind Dir Wind Speed Gust Speed Precip Events Conditions
12:15 AM 33.8 °F 21.9 °F 15.8 °F 48% 30.33 in 10.0 mi South 21.9 mph 28.8 mph N/A   Clear
12:35 AM 33.8 °F 22.2 °F 15.8 °F 48% 30.33 in 10.0 mi South 20.7 mph 36.8 mph N/A   Clear
12:55 AM 33.8 °F 21.6 °F 15.8 °F 48% 30.33 in 10.0 mi South 23.0 mph 27.6 mph N/A   Clear
1:15 AM 33.8 °F 21.9 °F 15.8 °F 48% 30.32 in 10.0 mi South 21.9 mph 32.2 mph N/A   Clear
1:35 AM 33.8 °F 21.3 °F 15.8 °F 48% 30.32 in 10.0 mi South 24.2 mph 32.2 mph N/A   Clear
1:55 AM 33.8 °F 21.9 °F 15.8 °F 48% 30.32 in 10.0 mi South 21.9 mph 27.6 mph N/A   Clear
2:15 AM 33.8 °F 22.2 °F 15.8 °F 48% 30.32 in 10.0 mi South 20.7 mph 26.5 mph N/A   Clear
2:35 AM 35.6 °F 25.9 °F 15.8 °F 44% 30.32 in 10.0 mi South 16.1 mph 29.9 mph N/A   Clear
2:55 AM 33.8 °F 21.0 °F 15.8 °F 48% 30.32 in 10.0 mi South 25.3 mph 32.2 mph N/A   Clear
3:15 AM 33.8 °F 21.6 °F 15.8 °F 48% 30.31 in 10.0 mi South 23.0 mph 32.2 mph N/A   Clear
3:35 AM 35.6 °F 23.4 °F 15.8 °F 44% 30.31 in 10.0 mi South 25.3 mph 33.4 mph N/A   Clear
3:55 AM 35.6 °F 25.2 °F 15.8 °F 44% 30.31 in 10.0 mi South 18.4 mph 29.9 mph N/A   Clear
4:15 AM 35.6 °F 23.7 °F 15.8 °F 44% 30.30 in 10.0 mi South 24.2 mph 31.1 mph N/A   Clear
4:35 AM 35.6 °F 24.2 °F 15.8 °F 44% 30.29 in 10.0 mi South 21.9 mph 32.2 mph N/A   Clear
4:55 AM 35.6 °F 23.7 °F 15.8 °F 44% 30.29 in 10.0 mi South 24.2 mph 33.4 mph N/A   Clear
5:15 AM 35.6 °F 24.2 °F 15.8 °F 44% 30.28 in 10.0 mi South 21.9 mph 33.4 mph N/A   Clear
5:35 AM 35.6 °F 23.2 °F 15.8 °F 44% 30.28 in 10.0 mi South 26.5 mph 36.8 mph N/A   Clear
5:55 AM 35.6 °F 23.2 °F 15.8 °F 44% 30.27 in 10.0 mi South 26.5 mph 40.3 mph N/A   Clear
6:15 AM 35.6 °F 21.9 °F 17.6 °F 48% 30.27 in 10.0 mi South 33.4 mph 41.4 mph N/A   Clear
6:35 AM 35.6 °F 23.4 °F 17.6 °F 48% 30.27 in 10.0 mi South 25.3 mph 36.8 mph N/A   Clear
6:55 AM 35.6 °F 23.0 °F 15.8 °F 44% 30.26 in 10.0 mi South 27.6 mph 33.4 mph N/A   Clear
7:15 AM 33.8 °F 20.3 °F 15.8 °F 48% 30.26 in 10.0 mi South 28.8 mph 38.0 mph N/A   Clear
7:35 AM 33.8 °F 22.5 °F 17.6 °F 52% 30.26 in 10.0 mi SSE 19.6 mph 33.4 mph N/A   Clear
7:55 AM 35.6 °F 25.2 °F 17.6 °F 48% 30.26 in 10.0 mi SSE 18.4 mph 33.4 mph N/A   Clear
8:15 AM 35.6 °F 24.0 °F 17.6 °F 48% 30.25 in 10.0 mi SSE 23.0 mph 34.5 mph N/A   Clear
8:35 AM 35.6 °F 22.7 °F 17.6 °F 48% 30.25 in 10.0 mi South 28.8 mph 40.3 mph N/A   Clear
8:55 AM 37.4 °F 24.4 °F 17.6 °F 45% 30.25 in 10.0 mi South 33.4 mph 42.6 mph N/A   Clear
9:15 AM 37.4 °F 24.8 °F 17.6 °F 45% 30.25 in 10.0 mi South 31.1 mph 38.0 mph N/A   Clear
9:35 AM 37.4 °F 25.6 °F 15.8 °F 41% 30.26 in 10.0 mi South 26.5 mph 42.6 mph N/A   Clear
9:55 AM 37.4 °F 24.8 °F 15.8 °F 41% 30.26 in 10.0 mi South 31.1 mph 39.1 mph N/A   Clear
10:15 AM 37.4 °F 24.8 °F 15.8 °F 41% 30.27 in 10.0 mi South 31.1 mph 39.1 mph N/A   Clear
10:35 AM 37.4 °F 25.4 °F 17.6 °F 45% 30.26 in 10.0 mi South 27.6 mph 39.1 mph N/A   Clear
10:55 AM 37.4 °F 25.6 °F 17.6 °F 45% 30.24 in 10.0 mi South 26.5 mph 36.8 mph N/A   Clear
11:15 AM 37.4 °F 25.9 °F 17.6 °F 45% 30.22 in 10.0 mi South 25.3 mph 36.8 mph N/A   Clear
11:35 AM 37.4 °F 25.0 °F 17.6 °F 45% 30.21 in 10.0 mi South 29.9 mph 40.3 mph N/A   Clear
11:55 AM 39.2 °F 27.4 °F 17.6 °F 42% 30.21 in 10.0 mi South 29.9 mph 39.1 mph N/A   Clear
12:15 PM 39.2 °F 27.4 °F 17.6 °F 42% 30.21 in 10.0 mi SSW 29.9 mph 41.4 mph N/A   Clear
12:35 PM 39.2 °F 27.2 °F 17.6 °F 42% 30.20 in 10.0 mi South 31.1 mph 40.3 mph N/A   Clear
12:55 PM 39.2 °F 27.6 °F 17.6 °F 42% 30.19 in 10.0 mi SSW 28.8 mph 39.1 mph N/A   Clear
1:15 PM 39.2 °F 27.6 °F 17.6 °F 42% 30.18 in 10.0 mi South 28.8 mph 40.3 mph N/A   Clear
1:35 PM 37.4 °F 24.8 °F 15.8 °F 41% 30.18 in 10.0 mi SSW 31.1 mph 36.8 mph N/A   Clear
1:55 PM 37.4 °F 24.6 °F 17.6 °F 45% 30.17 in 10.0 mi SSW 32.2 mph 38.0 mph N/A   Clear
2:15 PM 39.2 °F 28.3 °F 17.6 °F 42% 30.18 in 10.0 mi SSW 25.3 mph 38.0 mph N/A   Clear
2:35 PM 37.4 °F 25.2 °F 15.8 °F 41% 30.17 in 10.0 mi SSW 28.8 mph 39.1 mph N/A   Clear
2:55 PM 37.4 °F 26.6 °F 17.6 °F 45% 30.16 in 10.0 mi South 21.9 mph 38.0 mph N/A   Clear
3:15 PM 37.4 °F 25.0 °F 15.8 °F 41% 30.16 in 10.0 mi South 29.9 mph 35.7 mph N/A   Clear
3:35 PM 37.4 °F 26.1 °F 15.8 °F 41% 30.16 in 10.0 mi South 24.2 mph 39.1 mph N/A   Clear
3:55 PM 37.4 °F 26.1 °F 17.6 °F 45% 30.15 in 10.0 mi South 24.2 mph 33.4 mph N/A   Clear
4:15 PM 35.6 °F 22.7 °F 17.6 °F 48% 30.15 in 10.0 mi South 28.8 mph 34.5 mph N/A   Clear
4:35 PM 37.4 °F 26.9 °F 17.6 °F 45% 30.16 in 10.0 mi South 20.7 mph 28.8 mph N/A   Clear
4:55 PM 37.4 °F 26.6 °F 15.8 °F 41% 30.17 in 10.0 mi South 21.9 mph 27.6 mph N/A   Clear
5:15 PM 37.4 °F 26.6 °F 17.6 °F 45% 30.17 in 10.0 mi South 21.9 mph 27.6 mph N/A   Clear
5:35 PM 37.4 °F 26.9 °F 15.8 °F 41% 30.17 in 10.0 mi South 20.7 mph 26.5 mph N/A   Clear
5:55 PM 37.4 °F 28.2 °F 17.6 °F 45% 30.18 in 10.0 mi South 16.1 mph 23.0 mph N/A   Clear
6:15 PM 37.4 °F 29.3 °F 15.8 °F 41% 30.19 in 10.0 mi SW 12.7 mph 19.6 mph N/A   Clear
6:35 PM 35.6 °F 25.9 °F 17.6 °F 48% 30.20 in 10.0 mi South 16.1 mph 20.7 mph N/A   Clear
6:55 PM 35.6 °F 27.1 °F 15.8 °F 44% 30.19 in 10.0 mi SSW 12.7 mph - N/A   Partly Cloudy
7:15 PM 35.6 °F 29.2 °F 15.8 °F 44% 30.18 in 10.0 mi SSE 8.1 mph - N/A   Partly Cloudy
7:35 PM 30.2 °F 24.3 °F 14.0 °F 51% 30.18 in 10.0 mi South 5.8 mph - N/A   Mostly Cloudy
7:55 PM 30.2 °F - 15.8 °F 55% 30.19 in 10.0 mi Calm Calm - N/A   Overcast
8:15 PM 32.0 °F - 17.6 °F 55% 30.18 in 10.0 mi Calm Calm - N/A   Overcast
8:35 PM 35.6 °F 28.0 °F 17.6 °F 48% 30.18 in 10.0 mi SSW 10.4 mph - N/A   Overcast
8:55 PM 35.6 °F - 17.6 °F 48% 30.19 in 10.0 mi Calm Calm - N/A   Overcast
9:15 PM 35.6 °F 24.8 °F 17.6 °F 48% 30.18 in 10.0 mi SW 19.6 mph - N/A   Overcast
9:35 PM 35.6 °F 26.2 °F 17.6 °F 48% 30.18 in 10.0 mi SSW 15.0 mph - N/A   Overcast
9:55 PM 35.6 °F 26.2 °F 17.6 °F 48% 30.19 in 10.0 mi SW 15.0 mph - N/A   Overcast
10:15 PM 35.6 °F 26.2 °F 17.6 °F 48% 30.19 in 10.0 mi SSW 15.0 mph - N/A   Overcast
10:35 PM 35.6 °F 28.0 °F 19.4 °F 52% 30.20 in 10.0 mi SW 10.4 mph - N/A   Overcast
10:55 PM 35.6 °F 28.6 °F 19.4 °F 52% 30.20 in 10.0 mi WSW 9.2 mph 17.3 mph N/A   Overcast
11:15 PM 35.6 °F 32.8 °F 19.4 °F 52% 30.21 in 10.0 mi NW 3.5 mph - N/A   Overcast
11:35 PM 35.6 °F 32.8 °F 19.4 °F 52% 30.20 in 10.0 mi West 3.5 mph - N/A   Overcast
11:55 PM 35.6 °F - 19.4 °F 52% 30.21 in 10.0 mi Calm Calm - N/A   Overcast